Location: Ku?niki
(51.4449°N, 17.8974°E)
Time: 12:39:01
(UTC+00:00)

POLYITAN 1 - Pass Details

Date: 04 July 2022
Orbit: 587 x 604 km, 98.0° (Epoch: 07 August)

Event Time Altitude Azimuth Distance (km) Brightness Sun altitude
Rises 00:09:41 0° 20° (NNE) 2,862 ? -13.8°
Reaches altitude 10° 00:12:00 10° 29° (NNE) 1,957 ? -13.7°
Maximum altitude 00:15:58 37° 97° (E) 939 ? -13.4°
Enters shadow 00:19:15 14° 162° (SSE) 1,703 ? -13.3°
